Hourly Data Report for September 28, 2015

All times are specified in Local Standard Time (LST). Add 1 hour to adjust for Daylight Saving Time where and when it is observed.

TORONTO INTL A
ONTARIO

43°40'36.000" N
79°37'50.000" W
173.40 m
6158731
71624
YYZ

Download Data

Hourly Data (September 2015)
Hourly Data Report for September 28, 2015
Temp Definition
°C
Dew Point Temp Definition
°C
Rel Hum Definition
%
Wind Dir Definition
10's deg

Wind Spd Definition
km/h
Visibility Definition
km
Stn Press Definition
kPa
Hmdx Definition


Wind Chill Definition


Weather Definition


TIME
00:00 18.5 16.2 86 16 11 24.1 99.95     LegendNANA
01:00 18.8 15.3 80 19 11 24.1 99.96     Mainly Clear
02:00 18.4 15.1 81 17 6 24.1 99.93     LegendNANA
03:00 18.6 15.7 83 20 12 24.1 99.90     Rain
04:00 19.0 15.7 81 20 10 24.1 99.87     Cloudy
05:00 19.1 16.0 82 20 13 24.1 99.87     Rain
06:00 19.1 16.4 84 20 9 24.1 99.90     LegendNANA
07:00 18.8 17.2 90 18 10 19.3 99.89     Rain
08:00 19.0 17.4 90 20 10 12.9 99.88     Rain
09:00 19.1 18.0 93 18 9 19.3 99.87     Drizzle
10:00 19.7 17.5 87 21 12 24.1 99.86     Cloudy
11:00 20.0 17.4 85 20 19 24.1 99.83 26   LegendNANA
12:00 20.8 17.3 80 21 17 24.1 99.81 26   LegendNANA
13:00 21.4 17.7 79 24 18 24.1 99.74 27   Cloudy
14:00 21.6 17.5 77 18 10 24.1 99.65 27   LegendNANA
15:00 21.7 18.0 79 16 11 24.1 99.59 28   LegendNANA
16:00
17:00 21.7 17.2 75 19 11 24.1 99.52 27   LegendNANA
18:00 21.3 17.2 77 19 12 24.1 99.51 27   LegendNANA
19:00 20.3 17.6 84 17 11 24.1 99.49 26   Cloudy
20:00 20.1 17.5 85 18 9 24.1 99.52 26   LegendNANA
21:00 20.1 17.4 84 20 6 24.1 99.54 26   LegendNANA
22:00 19.8 17.4 86 18 9 24.1 99.51     Cloudy
23:00 19.2 17.4 89 15 7 24.1 99.46     LegendNANA

Notes on Data Quality.

Legend

  • E = Estimated
  • M = Missing
  • NA = Not Available
Date modified: